Time,TemperatureF,DewpointF,PressureIn,WindDirection,WindDirectionDegrees,WindSpeedMPH,WindSpeedGustMPH,Humidity,HourlyPrecipIn,Conditions,Clouds,dailyrainin,SoftwareType,DateUTC
2013-02-15 00:00:00,46.8,42.2,30.14,NNE,31,0.0,0.0,84,0.00,,CLR,0.00,VWS V14.00,2013-02-15 08:00:00,
2013-02-15 00:05:00,46.8,42.2,30.14,NNE,31,0.0,0.0,84,0.00,,CLR,0.00,VWS V14.00,2013-02-15 08:05:00,
2013-02-15 00:10:00,46.7,42.1,30.14,NNE,31,0.0,0.0,84,0.00,,CLR,0.00,VWS V14.00,2013-02-15 08:10:00,
2013-02-15 00:15:00,46.6,42.0,30.14,NNE,31,0.0,0.0,84,0.00,,CLR,0.00,VWS V14.00,2013-02-15 08:15:00,
2013-02-15 00:20:00,46.5,41.9,30.14,NNE,31,0.0,0.0,84,0.00,,CLR,0.00,VWS V14.00,2013-02-15 08:20:00,
2013-02-15 00:25:00,46.3,41.7,30.14,NNE,31,0.0,0.0,84,0.00,,CLR,0.00,VWS V14.00,2013-02-15 08:25:00,
2013-02-15 00:30:00,46.1,41.5,30.14,NNE,31,0.0,0.0,84,0.00,,CLR,0.00,VWS V14.00,2013-02-15 08:30:00,
2013-02-15 00:35:00,46.0,41.4,30.15,NNE,31,0.0,0.0,84,0.00,,CLR,0.00,VWS V14.00,2013-02-15 08:35:00,
2013-02-15 00:40:00,45.9,41.3,30.14,NNE,31,0.0,0.0,84,0.00,,CLR,0.00,VWS V14.00,2013-02-15 08:40:00,
2013-02-15 00:45:00,46.0,41.8,30.14,NNE,31,0.0,0.0,85,0.00,,CLR,0.00,VWS V14.00,2013-02-15 08:45:00,
2013-02-15 00:50:00,45.8,41.5,30.14,NNE,31,0.0,0.0,85,0.00,,CLR,0.00,VWS V14.00,2013-02-15 08:50:00,
2013-02-15 00:55:00,45.6,41.4,30.14,NNE,31,0.0,0.0,85,0.00,,CLR,0.00,VWS V14.00,2013-02-15 08:55:00,
2013-02-15 01:00:00,45.3,41.1,30.14,NNE,31,0.0,0.0,85,0.00,,CLR,0.00,VWS V14.00,2013-02-15 09:00:00,
2013-02-15 01:05:00,45.1,40.9,30.15,NNE,31,0.0,0.0,85,0.00,,CLR,0.00,VWS V14.00,2013-02-15 09:05:00,
2013-02-15 01:10:00,45.0,41.1,30.14,NNE,31,0.0,0.0,86,0.00,,CLR,0.00,VWS V14.00,2013-02-15 09:10:00,
2013-02-15 01:15:00,45.0,41.1,30.15,NNE,31,0.0,0.0,86,0.00,,CLR,0.00,VWS V14.00,2013-02-15 09:15:00,
2013-02-15 01:20:00,44.9,41.0,30.14,NNE,31,0.0,0.0,86,0.00,,CLR,0.00,VWS V14.00,2013-02-15 09:20:00,
2013-02-15 01:25:00,44.7,40.8,30.15,NNE,31,0.0,0.0,86,0.00,,CLR,0.00,VWS V14.00,2013-02-15 09:25:00,
2013-02-15 01:30:00,44.5,40.6,30.15,NNE,31,0.0,0.0,86,0.00,,CLR,0.00,VWS V14.00,2013-02-15 09:30:00,
2013-02-15 01:35:00,44.6,40.4,30.15,NNE,31,0.0,0.0,85,0.00,,CLR,0.00,VWS V14.00,2013-02-15 09:35:00,
2013-02-15 01:40:00,44.7,40.5,30.15,NNE,31,0.0,0.0,85,0.00,,CLR,0.00,VWS V14.00,2013-02-15 09:40:00,
2013-02-15 01:45:00,44.4,40.5,30.15,NNE,31,0.0,0.0,86,0.00,,CLR,0.00,VWS V14.00,2013-02-15 09:45:00,
2013-02-15 01:50:00,44.3,40.1,30.15,NNE,31,0.0,0.0,85,0.00,,CLR,0.00,VWS V14.00,2013-02-15 09:50:00,
2013-02-15 01:55:00,44.0,40.1,30.15,NNE,31,0.0,0.0,86,0.00,,CLR,0.00,VWS V14.00,2013-02-15 09:55:00,
2013-02-15 02:00:00,43.8,39.9,30.15,NNE,31,0.0,0.0,86,0.00,,CLR,0.00,VWS V14.00,2013-02-15 10:00:00,
2013-02-15 02:05:00,43.8,39.9,30.15,NNE,31,0.0,0.0,86,0.00,,CLR,0.00,VWS V14.00,2013-02-15 10:05:00,
2013-02-15 02:10:00,43.9,40.0,30.15,NNE,31,0.0,0.0,86,0.00,,CLR,0.00,VWS V14.00,2013-02-15 10:10:00,
2013-02-15 02:15:00,43.6,39.7,30.15,NNE,31,0.0,0.0,86,0.00,,CLR,0.00,VWS V14.00,2013-02-15 10:15:00,
2013-02-15 02:20:00,43.8,39.9,30.15,NNE,31,0.0,0.0,86,0.00,,CLR,0.00,VWS V14.00,2013-02-15 10:20:00,
2013-02-15 02:25:00,43.5,39.9,30.15,NNE,31,0.0,0.0,87,0.00,,CLR,0.00,VWS V14.00,2013-02-15 10:25:00,
2013-02-15 02:30:00,43.5,39.9,30.15,NNE,31,0.0,0.0,87,0.00,,CLR,0.00,VWS V14.00,2013-02-15 10:30:00,
2013-02-15 02:35:00,43.5,39.9,30.15,NNE,31,0.0,0.0,87,0.00,,CLR,0.00,VWS V14.00,2013-02-15 10:35:00,
2013-02-15 02:40:00,43.5,39.6,30.15,NNE,31,0.0,0.0,86,0.00,,CLR,0.00,VWS V14.00,2013-02-15 10:40:00,
2013-02-15 02:45:00,43.2,39.6,30.15,NNE,31,0.0,0.0,87,0.00,,CLR,0.00,VWS V14.00,2013-02-15 10:45:00,
2013-02-15 02:50:00,43.2,39.6,30.15,NNE,31,0.0,0.0,87,0.00,,CLR,0.00,VWS V14.00,2013-02-15 10:50:00,
2013-02-15 02:55:00,43.0,39.1,30.15,NNE,31,0.0,0.0,86,0.00,,CLR,0.00,VWS V14.00,2013-02-15 10:55:00,
2013-02-15 03:00:00,43.0,39.1,30.15,NNE,31,0.0,0.0,86,0.00,,CLR,0.00,VWS V14.00,2013-02-15 11:00:00,
2013-02-15 03:05:00,42.8,38.9,30.15,NNE,31,0.0,0.0,86,0.00,,CLR,0.00,VWS V14.00,2013-02-15 11:05:00,
2013-02-15 03:10:00,42.7,38.5,30.15,NNE,31,0.0,0.0,85,0.00,,CLR,0.00,VWS V14.00,2013-02-15 11:10:00,
2013-02-15 03:15:00,42.3,38.7,30.15,NNE,31,0.0,0.0,87,0.00,,CLR,0.00,VWS V14.00,2013-02-15 11:15:00,
2013-02-15 03:20:00,42.5,38.9,30.14,NNE,31,0.0,0.0,87,0.00,,CLR,0.00,VWS V14.00,2013-02-15 11:20:00,
2013-02-15 03:25:00,42.3,38.7,30.14,NNE,31,0.0,0.0,87,0.00,,CLR,0.00,VWS V14.00,2013-02-15 11:25:00,
2013-02-15 03:30:00,42.2,38.6,30.14,NNE,32,0.0,0.0,87,0.00,,CLR,0.00,VWS V14.00,2013-02-15 11:30:00,
2013-02-15 03:35:00,42.1,38.5,30.14,NNE,31,0.0,0.0,87,0.00,,CLR,0.00,VWS V14.00,2013-02-15 11:35:00,
2013-02-15 03:40:00,42.0,38.4,30.14,NNE,31,0.0,0.0,87,0.00,,CLR,0.00,VWS V14.00,2013-02-15 11:40:00,
2013-02-15 03:45:00,42.0,38.4,30.15,NNE,31,0.0,0.0,87,0.00,,CLR,0.00,VWS V14.00,2013-02-15 11:45:00,
2013-02-15 03:50:00,41.9,38.3,30.14,NNE,31,0.0,0.0,87,0.00,,CLR,0.00,VWS V14.00,2013-02-15 11:50:00,
2013-02-15 03:55:00,41.6,38.0,30.14,NNE,31,0.0,0.0,87,0.00,,CLR,0.00,VWS V14.00,2013-02-15 11:55:00,
2013-02-15 04:00:00,41.5,37.6,30.15,NNE,31,0.0,0.0,86,0.00,,CLR,0.00,VWS V14.00,2013-02-15 12:00:00,
2013-02-15 04:05:00,41.6,37.7,30.14,NNE,31,0.0,0.0,86,0.00,,CLR,0.00,VWS V14.00,2013-02-15 12:05:00,
2013-02-15 04:10:00,41.2,37.6,30.15,NNE,31,0.0,0.0,87,0.00,,CLR,0.00,VWS V14.00,2013-02-15 12:10:00,
2013-02-15 04:15:00,41.5,37.9,30.15,NNE,31,0.0,0.0,87,0.00,,CLR,0.00,VWS V14.00,2013-02-15 12:15:00,
2013-02-15 04:20:00,41.1,37.2,30.15,NNE,31,0.0,0.0,86,0.00,,CLR,0.00,VWS V14.00,2013-02-15 12:20:00,
2013-02-15 04:25:00,40.9,37.3,30.15,NNE,31,0.0,0.0,87,0.00,,CLR,0.00,VWS V14.00,2013-02-15 12:25:00,
2013-02-15 04:30:00,41.2,37.6,30.15,NNE,31,0.0,0.0,87,0.00,,CLR,0.00,VWS V14.00,2013-02-15 12:30:00,
2013-02-15 04:35:00,40.8,37.2,30.15,NNE,31,0.0,0.0,87,0.00,,CLR,0.00,VWS V14.00,2013-02-15 12:35:00,
2013-02-15 04:40:00,40.8,37.2,30.15,NNE,31,0.0,0.0,87,0.00,,CLR,0.00,VWS V14.00,2013-02-15 12:40:00,
2013-02-15 04:45:00,40.9,37.3,30.15,NNE,31,0.0,0.0,87,0.00,,CLR,0.00,VWS V14.00,2013-02-15 12:45:00,
2013-02-15 04:50:00,40.8,37.2,30.16,NNE,31,0.0,0.0,87,0.00,,CLR,0.00,VWS V14.00,2013-02-15 12:50:00,
2013-02-15 04:55:00,40.6,37.3,30.15,NNE,31,0.0,0.0,88,0.00,,CLR,0.00,VWS V14.00,2013-02-15 12:55:00,
2013-02-15 05:00:00,40.6,37.3,30.15,NNE,31,0.0,0.0,88,0.00,,CLR,0.00,VWS V14.00,2013-02-15 13:00:00,
2013-02-15 05:05:00,40.6,37.3,30.15,NNE,31,0.0,0.0,88,0.00,,CLR,0.00,VWS V14.00,2013-02-15 13:05:00,
2013-02-15 05:10:00,40.3,36.8,30.16,NNE,31,0.0,0.0,87,0.00,,CLR,0.00,VWS V14.00,2013-02-15 13:10:00,
2013-02-15 05:15:00,40.3,37.0,30.16,NNE,31,0.0,0.0,88,0.00,,CLR,0.00,VWS V14.00,2013-02-15 13:15:00,
2013-02-15 05:20:00,40.3,37.0,30.16,NNE,31,0.0,0.0,88,0.00,,CLR,0.00,VWS V14.00,2013-02-15 13:20:00,
2013-02-15 05:25:00,40.3,36.8,30.16,NNE,31,0.0,0.0,87,0.00,,CLR,0.00,VWS V14.00,2013-02-15 13:25:00,
2013-02-15 05:30:00,40.1,36.8,30.16,NNE,31,0.0,0.0,88,0.00,,CLR,0.00,VWS V14.00,2013-02-15 13:30:00,
2013-02-15 05:35:00,40.3,37.0,30.16,NNE,31,0.0,0.0,88,0.00,,CLR,0.00,VWS V14.00,2013-02-15 13:35:00,
2013-02-15 05:40:00,40.2,36.7,30.16,NNE,31,0.0,0.0,87,0.00,,CLR,0.00,VWS V14.00,2013-02-15 13:40:00,
2013-02-15 05:45:00,40.1,36.8,30.15,NNE,31,0.0,0.0,88,0.00,,CLR,0.00,VWS V14.00,2013-02-15 13:45:00,
2013-02-15 05:50:00,39.9,36.3,30.15,NNE,31,0.0,0.0,87,0.00,,CLR,0.00,VWS V14.00,2013-02-15 13:50:00,
2013-02-15 05:55:00,39.7,36.4,30.16,NNE,32,0.0,0.0,88,0.00,,CLR,0.00,VWS V14.00,2013-02-15 13:55:00,
2013-02-15 06:00:00,39.7,36.4,30.15,NNE,31,0.0,0.0,88,0.00,,CLR,0.00,VWS V14.00,2013-02-15 14:00:00,
2013-02-15 06:05:00,39.8,36.5,30.15,NNE,31,0.0,0.0,88,0.00,,CLR,0.00,VWS V14.00,2013-02-15 14:05:00,
2013-02-15 06:10:00,39.7,36.7,30.16,NNE,31,0.0,0.0,89,0.00,,CLR,0.00,VWS V14.00,2013-02-15 14:10:00,
2013-02-15 06:15:00,39.7,36.4,30.16,NNE,31,0.0,0.0,88,0.00,,CLR,0.00,VWS V14.00,2013-02-15 14:15:00,
2013-02-15 06:20:00,39.6,36.3,30.16,NNE,31,0.0,0.0,88,0.00,,CLR,0.00,VWS V14.00,2013-02-15 14:20:00,
2013-02-15 06:25:00,39.3,36.0,30.16,NNE,31,0.0,0.0,88,0.00,,CLR,0.00,VWS V14.00,2013-02-15 14:25:00,
2013-02-15 06:30:00,39.6,36.1,30.16,NNE,31,0.0,0.0,87,0.00,,CLR,0.00,VWS V14.00,2013-02-15 14:30:00,
2013-02-15 06:35:00,39.2,36.0,30.16,NNE,31,0.0,0.0,88,0.00,,CLR,0.00,VWS V14.00,2013-02-15 14:35:00,
2013-02-15 06:40:00,39.1,35.8,30.16,NNE,31,0.0,0.0,88,0.00,,CLR,0.00,VWS V14.00,2013-02-15 14:40:00,
2013-02-15 06:45:00,39.3,36.0,30.16,NNE,31,0.0,0.0,88,0.00,,CLR,0.00,VWS V14.00,2013-02-15 14:45:00,
2013-02-15 06:50:00,39.1,35.8,30.17,NNE,31,0.0,0.0,88,0.00,,CLR,0.00,VWS V14.00,2013-02-15 14:50:00,
2013-02-15 06:55:00,39.3,36.0,30.17,NNE,31,0.0,0.0,88,0.00,,CLR,0.00,VWS V14.00,2013-02-15 14:55:00,
2013-02-15 07:00:00,39.2,36.0,30.17,NNE,31,0.0,0.0,88,0.00,,CLR,0.00,VWS V14.00,2013-02-15 15:00:00,
2013-02-15 07:05:00,39.2,36.0,30.17,NNE,31,0.0,0.0,88,0.00,,CLR,0.00,VWS V14.00,2013-02-15 15:05:00,
2013-02-15 07:10:00,39.2,36.2,30.17,NNE,31,0.0,0.0,89,0.00,,CLR,0.00,VWS V14.00,2013-02-15 15:10:00,
2013-02-15 07:15:00,39.3,36.3,30.17,NNE,31,0.0,0.0,89,0.00,,CLR,0.00,VWS V14.00,2013-02-15 15:15:00,
2013-02-15 07:20:00,39.3,36.3,30.17,NNE,32,0.0,0.0,89,0.00,,CLR,0.00,VWS V14.00,2013-02-15 15:20:00,
2013-02-15 07:25:00,39.3,36.3,30.18,NNE,31,0.0,0.0,89,0.00,,CLR,0.00,VWS V14.00,2013-02-15 15:25:00,
2013-02-15 07:30:00,39.0,36.0,30.18,NNE,31,0.0,0.0,89,0.00,,CLR,0.00,VWS V14.00,2013-02-15 15:30:00,
2013-02-15 07:35:00,39.3,36.3,30.18,NNE,31,0.0,0.0,89,0.00,,CLR,0.00,VWS V14.00,2013-02-15 15:35:00,
2013-02-15 07:40:00,39.4,36.4,30.18,NNE,31,0.0,0.0,89,0.00,,CLR,0.00,VWS V14.00,2013-02-15 15:40:00,
2013-02-15 07:45:00,39.3,36.3,30.18,NNE,31,0.0,0.0,89,0.00,,CLR,0.00,VWS V14.00,2013-02-15 15:45:00,
2013-02-15 07:50:00,39.5,36.5,30.19,NNE,31,0.0,0.0,89,0.00,,CLR,0.00,VWS V14.00,2013-02-15 15:50:00,
2013-02-15 07:55:00,39.5,36.5,30.19,NNE,31,0.0,0.0,89,0.00,,CLR,0.00,VWS V14.00,2013-02-15 15:55:00,
2013-02-15 08:00:00,39.8,37.1,30.18,NNE,31,0.0,0.0,90,0.00,,CLR,0.00,VWS V14.00,2013-02-15 16:00:00,
2013-02-15 08:05:00,40.0,37.3,30.19,NNE,31,0.0,0.0,90,0.00,,CLR,0.00,VWS V14.00,2013-02-15 16:05:00,
2013-02-15 08:10:00,40.0,37.3,30.19,NNE,31,0.0,0.0,90,0.00,,CLR,0.00,VWS V14.00,2013-02-15 16:10:00,
2013-02-15 08:15:00,40.3,37.9,30.19,NNE,31,0.0,0.0,91,0.00,,CLR,0.00,VWS V14.00,2013-02-15 16:15:00,
2013-02-15 08:20:00,40.5,38.1,30.20,NNE,31,0.0,0.0,91,0.00,,CLR,0.00,VWS V14.00,2013-02-15 16:20:00,
2013-02-15 08:25:00,41.0,38.6,30.20,NNE,31,0.0,0.0,91,0.00,,CLR,0.00,VWS V14.00,2013-02-15 16:25:00,
2013-02-15 08:30:00,41.0,38.6,30.20,NNE,31,0.0,0.0,91,0.00,,CLR,0.00,VWS V14.00,2013-02-15 16:30:00,
2013-02-15 08:35:00,40.9,38.5,30.20,NNE,31,0.0,0.0,91,0.00,,CLR,0.00,VWS V14.00,2013-02-15 16:35:00,
2013-02-15 08:40:00,41.2,38.5,30.20,NNE,31,0.0,0.0,90,0.00,,CLR,0.00,VWS V14.00,2013-02-15 16:40:00,
2013-02-15 08:45:00,41.5,38.8,30.20,NNE,31,0.0,0.0,90,0.00,,CLR,0.00,VWS V14.00,2013-02-15 16:45:00,
2013-02-15 08:50:00,41.9,39.2,30.19,NNE,31,0.0,0.0,90,0.00,,CLR,0.00,VWS V14.00,2013-02-15 16:50:00,
2013-02-15 08:55:00,42.5,39.5,30.20,NNE,31,0.0,0.0,89,0.00,,CLR,0.00,VWS V14.00,2013-02-15 16:55:00,
2013-02-15 09:00:00,42.8,39.5,30.20,NNE,31,0.0,0.0,88,0.00,,CLR,0.00,VWS V14.00,2013-02-15 17:00:00,
2013-02-15 09:05:00,43.2,39.9,30.19,NNE,31,0.0,0.0,88,0.00,,CLR,0.00,VWS V14.00,2013-02-15 17:05:00,
2013-02-15 09:10:00,43.9,40.3,30.20,NNE,31,0.0,0.0,87,0.00,,CLR,0.00,VWS V14.00,2013-02-15 17:10:00,
2013-02-15 09:15:00,44.2,40.6,30.20,NNE,31,0.0,0.0,87,0.00,,CLR,0.00,VWS V14.00,2013-02-15 17:15:00,
2013-02-15 09:20:00,44.7,40.5,30.20,NNE,31,0.0,0.0,85,0.00,,CLR,0.00,VWS V14.00,2013-02-15 17:20:00,
2013-02-15 09:25:00,45.4,41.2,30.20,NNE,31,0.0,0.0,85,0.00,,CLR,0.00,VWS V14.00,2013-02-15 17:25:00,
2013-02-15 09:30:00,46.0,41.4,30.19,NNE,31,0.0,0.0,84,0.00,,CLR,0.00,VWS V14.00,2013-02-15 17:30:00,
2013-02-15 09:35:00,46.5,41.9,30.20,NNE,31,0.0,0.0,84,0.00,,CLR,0.00,VWS V14.00,2013-02-15 17:35:00,
2013-02-15 09:40:00,46.9,42.0,30.20,NNE,31,0.0,0.0,83,0.00,,CLR,0.00,VWS V14.00,2013-02-15 17:40:00,
2013-02-15 09:45:00,47.7,42.2,30.19,NNE,31,0.0,0.0,81,0.00,,CLR,0.00,VWS V14.00,2013-02-15 17:45:00,
2013-02-15 09:50:00,48.1,42.2,30.19,NNE,31,0.0,0.0,80,0.00,,CLR,0.00,VWS V14.00,2013-02-15 17:50:00,
2013-02-15 09:55:00,48.9,42.7,30.20,NNE,31,0.0,0.0,79,0.00,,CLR,0.00,VWS V14.00,2013-02-15 17:55:00,
2013-02-15 10:00:00,49.2,42.3,30.20,NNE,31,0.0,0.0,77,0.00,,CLR,0.00,VWS V14.00,2013-02-15 18:00:00,
2013-02-15 10:05:00,49.7,43.1,30.19,NNE,31,0.0,0.0,78,0.00,,CLR,0.00,VWS V14.00,2013-02-15 18:05:00,
2013-02-15 10:10:00,50.7,43.8,30.19,NNE,31,0.0,0.0,77,0.00,,CLR,0.00,VWS V14.00,2013-02-15 18:10:00,
2013-02-15 10:15:00,51.2,43.6,30.20,NNE,31,0.0,0.0,75,0.00,,CLR,0.00,VWS V14.00,2013-02-15 18:15:00,
2013-02-15 10:20:00,51.8,43.8,30.20,NNE,31,0.0,0.0,74,0.00,,CLR,0.00,VWS V14.00,2013-02-15 18:20:00,
2013-02-15 10:25:00,52.7,44.3,30.20,NNE,31,0.0,0.0,73,0.00,,CLR,0.00,VWS V14.00,2013-02-15 18:25:00,
2013-02-15 10:30:00,53.0,44.6,30.19,NNE,31,0.0,0.0,73,0.00,,CLR,0.00,VWS V14.00,2013-02-15 18:30:00,
2013-02-15 10:35:00,53.6,44.8,30.20,NNE,31,0.0,0.0,72,0.00,,CLR,0.00,VWS V14.00,2013-02-15 18:35:00,
2013-02-15 10:40:00,54.2,44.6,30.20,NNE,31,0.0,0.0,70,0.00,,CLR,0.00,VWS V14.00,2013-02-15 18:40:00,
2013-02-15 10:45:00,55.0,45.0,30.19,NNE,31,0.0,0.0,69,0.00,,CLR,0.00,VWS V14.00,2013-02-15 18:45:00,
2013-02-15 10:50:00,55.6,45.2,30.20,NNE,31,0.0,0.0,68,0.00,,CLR,0.00,VWS V14.00,2013-02-15 18:50:00,
2013-02-15 10:55:00,56.3,45.5,30.20,NNE,31,0.0,0.0,67,0.00,,CLR,0.00,VWS V14.00,2013-02-15 18:55:00,
2013-02-15 11:00:00,56.7,45.1,30.20,NE,34,0.0,0.0,65,0.00,,CLR,0.00,VWS V14.00,2013-02-15 19:00:00,
2013-02-15 11:05:00,57.4,45.8,30.19,NE,37,0.0,0.0,65,0.00,,CLR,0.00,VWS V14.00,2013-02-15 19:05:00,
2013-02-15 11:10:00,58.1,46.0,30.20,NE,37,0.0,0.0,64,0.00,,CLR,0.00,VWS V14.00,2013-02-15 19:10:00,
2013-02-15 11:15:00,58.6,46.1,30.19,North,10,0.0,0.0,63,0.00,,CLR,0.00,VWS V14.00,2013-02-15 19:15:00,
2013-02-15 11:20:00,59.2,46.6,30.20,North,9,0.0,0.0,63,0.00,,CLR,0.00,VWS V14.00,2013-02-15 19:20:00,
2013-02-15 11:25:00,60.0,47.0,30.19,North,0,0.0,0.0,62,0.00,,CLR,0.00,VWS V14.00,2013-02-15 19:25:00,
2013-02-15 11:30:00,61.0,47.5,30.19,North,0,0.0,0.0,61,0.00,,CLR,0.00,VWS V14.00,2013-02-15 19:30:00,
2013-02-15 11:35:00,61.3,46.9,30.19,North,0,0.0,0.0,59,0.00,,CLR,0.00,VWS V14.00,2013-02-15 19:35:00,
2013-02-15 11:40:00,62.1,47.2,30.19,North,0,0.0,0.0,58,0.00,,CLR,0.00,VWS V14.00,2013-02-15 19:40:00,
2013-02-15 11:45:00,63.0,48.5,30.19,North,4,0.0,0.0,59,0.00,,CLR,0.00,VWS V14.00,2013-02-15 19:45:00,
2013-02-15 11:50:00,63.5,48.9,30.19,North,4,0.0,0.0,59,0.00,,CLR,0.00,VWS V14.00,2013-02-15 19:50:00,
2013-02-15 11:55:00,64.4,49.8,30.19,North,3,0.0,0.0,59,0.00,,CLR,0.00,VWS V14.00,2013-02-15 19:55:00,
2013-02-15 12:00:00,65.0,49.4,30.19,North,1,0.0,0.0,57,0.00,,CLR,0.00,VWS V14.00,2013-02-15 20:00:00,
2013-02-15 12:05:00,65.7,50.1,30.18,ESE,119,0.0,1.0,57,0.00,,CLR,0.00,VWS V14.00,2013-02-15 20:05:00,
2013-02-15 12:10:00,66.5,50.8,30.18,North,0,0.0,2.0,57,0.00,,CLR,0.00,VWS V14.00,2013-02-15 20:10:00,
2013-02-15 12:15:00,67.1,51.4,30.18,North,0,0.0,2.0,57,0.00,,CLR,0.00,VWS V14.00,2013-02-15 20:15:00,
2013-02-15 12:20:00,67.5,51.3,30.18,NNE,30,0.0,2.0,56,0.00,,CLR,0.00,VWS V14.00,2013-02-15 20:20:00,
2013-02-15 12:25:00,68.3,52.0,30.18,ENE,59,0.0,2.0,56,0.00,,CLR,0.00,VWS V14.00,2013-02-15 20:25:00,
2013-02-15 12:30:00,68.7,51.9,30.18,South,178,0.0,0.0,55,0.00,,CLR,0.00,VWS V14.00,2013-02-15 20:30:00,
2013-02-15 12:35:00,69.3,52.0,30.17,North,0,0.0,2.0,54,0.00,,CLR,0.00,VWS V14.00,2013-02-15 20:35:00,
2013-02-15 12:40:00,70.1,52.2,30.17,North,2,0.0,2.0,53,0.00,,CLR,0.00,VWS V14.00,2013-02-15 20:40:00,
2013-02-15 12:45:00,70.6,52.7,30.17,NE,56,0.0,2.0,53,0.00,,CLR,0.00,VWS V14.00,2013-02-15 20:45:00,
2013-02-15 12:50:00,70.8,52.3,30.16,SSE,148,0.0,2.0,52,0.00,,CLR,0.00,VWS V14.00,2013-02-15 20:50:00,
2013-02-15 12:55:00,71.5,52.4,30.17,North,7,0.0,4.0,51,0.00,,CLR,0.00,VWS V14.00,2013-02-15 20:55:00,
2013-02-15 13:00:00,71.9,52.3,30.16,ENE,60,0.0,1.0,50,0.00,,CLR,0.00,VWS V14.00,2013-02-15 21:00:00,
2013-02-15 13:05:00,72.3,52.1,30.16,SE,134,1.0,2.0,49,0.00,,CLR,0.00,VWS V14.00,2013-02-15 21:05:00,
2013-02-15 13:10:00,72.9,51.5,30.16,SSE,149,0.0,2.0,47,0.00,,CLR,0.00,VWS V14.00,2013-02-15 21:10:00,
2013-02-15 13:15:00,73.8,52.9,30.16,North,2,0.0,2.0,48,0.00,,CLR,0.00,VWS V14.00,2013-02-15 21:15:00,
2013-02-15 13:20:00,73.8,51.2,30.16,West,262,1.0,2.0,45,0.00,,CLR,0.00,VWS V14.00,2013-02-15 21:20:00,
2013-02-15 13:25:00,74.3,51.0,30.16,NE,56,1.0,4.0,44,0.00,,CLR,0.00,VWS V14.00,2013-02-15 21:25:00,
2013-02-15 13:30:00,74.8,52.1,30.16,NE,38,0.0,0.0,45,0.00,,CLR,0.00,VWS V14.00,2013-02-15 21:30:00,
2013-02-15 13:35:00,75.4,52.6,30.16,East,80,0.0,2.0,45,0.00,,CLR,0.00,VWS V14.00,2013-02-15 21:35:00,
2013-02-15 13:40:00,75.8,51.7,30.15,North,0,0.0,2.0,43,0.00,,CLR,0.00,VWS V14.00,2013-02-15 21:40:00,
2013-02-15 13:45:00,76.3,52.8,30.15,NNE,13,0.0,2.0,44,0.00,,CLR,0.00,VWS V14.00,2013-02-15 21:45:00,
2013-02-15 13:50:00,76.8,53.3,30.15,North,353,0.0,2.0,44,0.00,,CLR,0.00,VWS V14.00,2013-02-15 21:50:00,
2013-02-15 13:55:00,77.1,53.5,30.15,ENE,74,0.0,2.0,44,0.00,,CLR,0.00,VWS V14.00,2013-02-15 21:55:00,
2013-02-15 14:00:00,77.3,53.7,30.15,NE,52,0.0,1.0,44,0.00,,CLR,0.00,VWS V14.00,2013-02-15 22:00:00,
2013-02-15 14:05:00,77.8,54.2,30.15,NE,42,0.0,1.0,44,0.00,,CLR,0.00,VWS V14.00,2013-02-15 22:05:00,
2013-02-15 14:10:00,77.7,54.1,30.15,NE,54,0.0,2.0,44,0.00,,CLR,0.00,VWS V14.00,2013-02-15 22:10:00,
2013-02-15 14:15:00,77.6,54.0,30.15,ESE,102,0.0,2.0,44,0.00,,CLR,0.00,VWS V14.00,2013-02-15 22:15:00,
2013-02-15 14:20:00,78.3,54.6,30.15,NE,53,0.0,2.0,44,0.00,,CLR,0.00,VWS V14.00,2013-02-15 22:20:00,
2013-02-15 14:25:00,78.8,55.1,30.14,NE,37,0.0,2.0,44,0.00,,CLR,0.00,VWS V14.00,2013-02-15 22:25:00,
2013-02-15 14:30:00,79.1,54.7,30.14,NE,35,0.0,1.0,43,0.00,,CLR,0.00,VWS V14.00,2013-02-15 22:30:00,
2013-02-15 14:35:00,79.6,54.5,30.15,NE,45,0.0,1.0,42,0.00,,CLR,0.00,VWS V14.00,2013-02-15 22:35:00,
2013-02-15 14:40:00,79.8,54.0,30.15,ENE,67,0.0,2.0,41,0.00,,CLR,0.00,VWS V14.00,2013-02-15 22:40:00,
2013-02-15 14:45:00,80.0,53.5,30.15,ENE,65,0.0,2.0,40,0.00,,CLR,0.00,VWS V14.00,2013-02-15 22:45:00,
2013-02-15 14:50:00,80.5,54.7,30.15,ESE,120,0.0,2.0,41,0.00,,CLR,0.00,VWS V14.00,2013-02-15 22:50:00,
2013-02-15 14:55:00,80.7,54.8,30.15,South,181,0.0,2.0,41,0.00,,CLR,0.00,VWS V14.00,2013-02-15 22:55:00,
2013-02-15 15:00:00,80.8,55.6,30.14,ENE,70,0.0,0.0,42,0.00,,CLR,0.00,VWS V14.00,2013-02-15 23:00:00,
2013-02-15 15:05:00,80.9,57.0,30.15,NE,53,1.0,1.0,44,0.00,,CLR,0.00,VWS V14.00,2013-02-15 23:05:00,
2013-02-15 15:10:00,80.9,56.3,30.15,ENE,57,0.0,2.0,43,0.00,,CLR,0.00,VWS V14.00,2013-02-15 23:10:00,
2013-02-15 15:15:00,80.4,56.5,30.14,ENE,75,0.0,2.0,44,0.00,,CLR,0.00,VWS V14.00,2013-02-15 23:15:00,
2013-02-15 15:20:00,80.5,56.6,30.14,SE,140,0.0,2.0,44,0.00,,CLR,0.00,VWS V14.00,2013-02-15 23:20:00,
2013-02-15 15:25:00,80.4,56.5,30.14,ENE,64,0.0,2.0,44,0.00,,CLR,0.00,VWS V14.00,2013-02-15 23:25:00,
2013-02-15 15:30:00,80.3,56.4,30.14,NE,47,0.0,0.0,44,0.00,,CLR,0.00,VWS V14.00,2013-02-15 23:30:00,
2013-02-15 15:35:00,80.6,56.1,30.14,NE,55,0.0,1.0,43,0.00,,CLR,0.00,VWS V14.00,2013-02-15 23:35:00,
2013-02-15 15:40:00,80.5,56.0,30.14,ENE,64,0.0,1.0,43,0.00,,CLR,0.00,VWS V14.00,2013-02-15 23:40:00,
2013-02-15 15:45:00,80.7,55.5,30.14,ENE,62,0.0,1.0,42,0.00,,CLR,0.00,VWS V14.00,2013-02-15 23:45:00,
2013-02-15 15:50:00,80.0,55.5,30.14,ENE,58,0.0,3.0,43,0.00,,CLR,0.00,VWS V14.00,2013-02-15 23:50:00,
2013-02-15 15:55:00,80.1,55.0,30.14,ENE,64,0.0,3.0,42,0.00,,CLR,0.00,VWS V14.00,2013-02-15 23:55:00,
2013-02-15 16:00:00,79.9,54.8,30.14,ESE,117,0.0,1.0,42,0.00,,CLR,0.00,VWS V14.00,2013-02-16 00:00:00,
2013-02-15 16:05:00,79.7,54.6,30.15,ENE,78,0.0,1.0,42,0.00,,CLR,0.00,VWS V14.00,2013-02-16 00:05:00,
2013-02-15 16:10:00,79.9,54.8,30.14,ESE,118,0.0,1.0,42,0.00,,CLR,0.00,VWS V14.00,2013-02-16 00:10:00,
2013-02-15 16:15:00,79.7,54.6,30.14,SE,128,0.0,1.0,42,0.00,,CLR,0.00,VWS V14.00,2013-02-16 00:15:00,
2013-02-15 16:20:00,79.0,55.2,30.14,South,171,0.0,1.0,44,0.00,,CLR,0.00,VWS V14.00,2013-02-16 00:20:00,
2013-02-15 16:25:00,77.8,54.8,30.14,SE,139,0.0,1.0,45,0.00,,CLR,0.00,VWS V14.00,2013-02-16 00:25:00,
2013-02-15 16:30:00,77.0,55.2,30.15,ESE,118,0.0,1.0,47,0.00,,CLR,0.00,VWS V14.00,2013-02-16 00:30:00,
2013-02-15 16:35:00,76.2,55.1,30.14,ESE,111,0.0,2.0,48,0.00,,CLR,0.00,VWS V14.00,2013-02-16 00:35:00,
2013-02-15 16:40:00,75.3,54.8,30.14,ESE,110,0.0,2.0,49,0.00,,CLR,0.00,VWS V14.00,2013-02-16 00:40:00,
2013-02-15 16:45:00,75.0,54.0,30.14,ESE,117,0.0,2.0,48,0.00,,CLR,0.00,VWS V14.00,2013-02-16 00:45:00,
2013-02-15 16:50:00,74.0,54.2,30.14,ESE,106,0.0,2.0,50,0.00,,CLR,0.00,VWS V14.00,2013-02-16 00:50:00,
2013-02-15 16:55:00,73.6,55.4,30.14,East,85,0.0,2.0,53,0.00,,CLR,0.00,VWS V14.00,2013-02-16 00:55:00,
2013-02-15 17:00:00,73.2,55.1,30.14,NE,43,0.0,1.0,53,0.00,,CLR,0.00,VWS V14.00,2013-02-16 01:00:00,
2013-02-15 17:05:00,72.7,54.6,30.14,NE,46,0.0,1.0,53,0.00,,CLR,0.00,VWS V14.00,2013-02-16 01:05:00,
2013-02-15 17:10:00,72.1,54.6,30.14,NNE,24,0.0,1.0,54,0.00,,CLR,0.00,VWS V14.00,2013-02-16 01:10:00,
2013-02-15 17:15:00,71.8,54.3,30.14,NNE,30,0.0,1.0,54,0.00,,CLR,0.00,VWS V14.00,2013-02-16 01:15:00,
2013-02-15 17:20:00,71.1,53.6,30.14,NNE,30,0.0,1.0,54,0.00,,CLR,0.00,VWS V14.00,2013-02-16 01:20:00,
2013-02-15 17:25:00,70.7,53.8,30.14,NE,48,0.0,1.0,55,0.00,,CLR,0.00,VWS V14.00,2013-02-16 01:25:00,
2013-02-15 17:30:00,70.1,53.2,30.14,NE,49,0.0,1.0,55,0.00,,CLR,0.00,VWS V14.00,2013-02-16 01:30:00,
2013-02-15 17:35:00,69.9,53.5,30.14,NE,49,0.0,1.0,56,0.00,,CLR,0.00,VWS V14.00,2013-02-16 01:35:00,
2013-02-15 17:40:00,69.1,52.8,30.14,NE,49,0.0,1.0,56,0.00,,CLR,0.00,VWS V14.00,2013-02-16 01:40:00,
2013-02-15 17:45:00,68.9,53.1,30.14,NE,50,0.0,1.0,57,0.00,,CLR,0.00,VWS V14.00,2013-02-16 01:45:00,
2013-02-15 17:50:00,68.5,52.7,30.14,NE,50,0.0,1.0,57,0.00,,CLR,0.00,VWS V14.00,2013-02-16 01:50:00,
2013-02-15 17:55:00,67.9,52.1,30.14,NE,49,0.0,1.0,57,0.00,,CLR,0.00,VWS V14.00,2013-02-16 01:55:00,
2013-02-15 18:00:00,67.2,51.9,30.14,NE,49,0.0,0.0,58,0.00,,CLR,0.00,VWS V14.00,2013-02-16 02:00:00,
2013-02-15 18:05:00,66.7,51.9,30.14,NE,49,0.0,0.0,59,0.00,,CLR,0.00,VWS V14.00,2013-02-16 02:05:00,
2013-02-15 18:10:00,66.5,51.8,30.14,NE,50,0.0,0.0,59,0.00,,CLR,0.00,VWS V14.00,2013-02-16 02:10:00,
2013-02-15 18:15:00,65.7,51.5,30.14,NE,50,0.0,0.0,60,0.00,,CLR,0.00,VWS V14.00,2013-02-16 02:15:00,
2013-02-15 18:20:00,65.6,51.4,30.14,NE,50,0.0,0.0,60,0.00,,CLR,0.00,VWS V14.00,2013-02-16 02:20:00,
2013-02-15 18:25:00,64.9,50.7,30.15,NE,50,0.0,0.0,60,0.00,,CLR,0.00,VWS V14.00,2013-02-16 02:25:00,
2013-02-15 18:30:00,64.6,50.9,30.15,NE,50,0.0,0.0,61,0.00,,CLR,0.00,VWS V14.00,2013-02-16 02:30:00,
2013-02-15 18:35:00,64.0,50.3,30.15,NE,50,0.0,0.0,61,0.00,,CLR,0.00,VWS V14.00,2013-02-16 02:35:00,
2013-02-15 18:40:00,63.5,49.8,30.14,NE,50,0.0,0.0,61,0.00,,CLR,0.00,VWS V14.00,2013-02-16 02:40:00,
2013-02-15 18:45:00,63.1,49.9,30.15,NE,50,0.0,0.0,62,0.00,,CLR,0.00,VWS V14.00,2013-02-16 02:45:00,
2013-02-15 18:50:00,62.8,49.6,30.15,NE,50,0.0,0.0,62,0.00,,CLR,0.00,VWS V14.00,2013-02-16 02:50:00,
2013-02-15 18:55:00,62.4,49.7,30.15,NE,50,0.0,0.0,63,0.00,,CLR,0.00,VWS V14.00,2013-02-16 02:55:00,
2013-02-15 19:00:00,61.9,49.2,30.15,NE,50,0.0,0.0,63,0.00,,CLR,0.00,VWS V14.00,2013-02-16 03:00:00,
2013-02-15 19:05:00,61.3,48.6,30.15,NE,50,0.0,0.0,63,0.00,,CLR,0.00,VWS V14.00,2013-02-16 03:05:00,
2013-02-15 19:10:00,60.9,48.7,30.16,NE,50,0.0,0.0,64,0.00,,CLR,0.00,VWS V14.00,2013-02-16 03:10:00,
2013-02-15 19:15:00,60.8,49.0,30.15,NE,50,0.0,0.0,65,0.00,,CLR,0.00,VWS V14.00,2013-02-16 03:15:00,
2013-02-15 19:20:00,60.3,48.5,30.16,NE,50,0.0,0.0,65,0.00,,CLR,0.00,VWS V14.00,2013-02-16 03:20:00,
2013-02-15 19:25:00,60.0,48.6,30.16,NE,50,0.0,0.0,66,0.00,,CLR,0.00,VWS V14.00,2013-02-16 03:25:00,
2013-02-15 19:30:00,59.5,48.2,30.16,NE,50,0.0,0.0,66,0.00,,CLR,0.00,VWS V14.00,2013-02-16 03:30:00,
2013-02-15 19:35:00,59.4,48.0,30.16,NE,50,0.0,0.0,66,0.00,,CLR,0.00,VWS V14.00,2013-02-16 03:35:00,
2013-02-15 19:40:00,58.8,47.9,30.16,NE,50,0.0,0.0,67,0.00,,CLR,0.00,VWS V14.00,2013-02-16 03:40:00,
2013-02-15 19:45:00,58.3,47.4,30.15,NE,50,0.0,0.0,67,0.00,,CLR,0.00,VWS V14.00,2013-02-16 03:45:00,
2013-02-15 19:50:00,58.1,47.6,30.15,NE,50,0.0,0.0,68,0.00,,CLR,0.00,VWS V14.00,2013-02-16 03:50:00,
2013-02-15 19:55:00,58.1,48.4,30.15,NE,50,0.0,0.0,70,0.00,,CLR,0.00,VWS V14.00,2013-02-16 03:55:00,
2013-02-15 20:00:00,57.4,47.3,30.15,NE,50,0.0,0.0,69,0.00,,CLR,0.00,VWS V14.00,2013-02-16 04:00:00,
2013-02-15 20:05:00,56.9,47.2,30.16,NE,50,0.0,0.0,70,0.00,,CLR,0.00,VWS V14.00,2013-02-16 04:05:00,
2013-02-15 20:10:00,56.7,47.0,30.16,NE,50,0.0,0.0,70,0.00,,CLR,0.00,VWS V14.00,2013-02-16 04:10:00,
2013-02-15 20:15:00,56.2,46.9,30.16,NE,50,0.0,0.0,71,0.00,,CLR,0.00,VWS V14.00,2013-02-16 04:15:00,
2013-02-15 20:20:00,56.2,47.3,30.16,NE,50,0.0,0.0,72,0.00,,CLR,0.00,VWS V14.00,2013-02-16 04:20:00,
2013-02-15 20:25:00,55.9,47.4,30.16,NE,50,0.0,0.0,73,0.00,,CLR,0.00,VWS V14.00,2013-02-16 04:25:00,
2013-02-15 20:30:00,55.4,46.9,30.16,NE,50,0.0,0.0,73,0.00,,CLR,0.00,VWS V14.00,2013-02-16 04:30:00,
2013-02-15 20:35:00,55.4,46.9,30.16,NE,50,0.0,0.0,73,0.00,,CLR,0.00,VWS V14.00,2013-02-16 04:35:00,
2013-02-15 20:40:00,54.9,46.8,30.17,NE,50,0.0,0.0,74,0.00,,CLR,0.00,VWS V14.00,2013-02-16 04:40:00,
2013-02-15 20:45:00,54.7,46.6,30.16,NE,50,0.0,0.0,74,0.00,,CLR,0.00,VWS V14.00,2013-02-16 04:45:00,
2013-02-15 20:50:00,54.3,46.6,30.17,NE,50,0.0,0.0,75,0.00,,CLR,0.00,VWS V14.00,2013-02-16 04:50:00,
2013-02-15 20:55:00,54.1,46.7,30.16,NE,50,0.0,0.0,76,0.00,,CLR,0.00,VWS V14.00,2013-02-16 04:55:00,
2013-02-15 21:00:00,53.7,46.0,30.16,NE,50,0.0,0.0,75,0.00,,CLR,0.00,VWS V14.00,2013-02-16 05:00:00,
2013-02-15 21:05:00,53.7,46.3,30.16,NE,50,0.0,0.0,76,0.00,,CLR,0.00,VWS V14.00,2013-02-16 05:05:00,
2013-02-15 21:10:00,53.2,46.2,30.17,NE,49,0.0,0.0,77,0.00,,CLR,0.00,VWS V14.00,2013-02-16 05:10:00,
2013-02-15 21:15:00,52.9,45.9,30.16,NE,50,0.0,0.0,77,0.00,,CLR,0.00,VWS V14.00,2013-02-16 05:15:00,
2013-02-15 21:20:00,53.1,46.4,30.17,NE,50,0.0,0.0,78,0.00,,CLR,0.00,VWS V14.00,2013-02-16 05:20:00,
2013-02-15 21:23:00,52.7,46.0,30.17,NE,50,0.0,0.0,78,0.00,,CLR,0.00,VWS V14.00,2013-02-16 05:23:00,
2013-02-15 21:28:00,52.6,46.3,30.17,NE,50,0.0,0.0,79,0.00,,CLR,0.00,VWS V14.00,2013-02-16 05:28:00,
2013-02-15 21:30:00,50.0,44.7,30.17,NE,50,0.0,0.0,82,0.00,,CLR,0.00,VWS V14.00,2013-02-16 05:30:00,
2013-02-15 21:33:00,52.2,45.9,30.17,NE,50,0.0,0.0,79,0.00,,CLR,0.00,VWS V14.00,2013-02-16 05:33:00,
2013-02-15 21:38:00,52.3,46.0,30.17,NE,50,0.0,0.0,79,0.00,,CLR,0.00,VWS V14.00,2013-02-16 05:38:00,
2013-02-15 21:43:00,51.9,45.6,30.18,NE,50,0.0,0.0,79,0.00,,CLR,0.00,VWS V14.00,2013-02-16 05:43:00,
2013-02-15 21:48:00,51.8,45.5,30.17,NE,50,0.0,0.0,79,0.00,,CLR,0.00,VWS V14.00,2013-02-16 05:48:00,
2013-02-15 21:53:00,51.6,45.6,30.17,NE,50,0.0,0.0,80,0.00,,CLR,0.00,VWS V14.00,2013-02-16 05:53:00,
2013-02-15 21:58:00,51.3,45.0,30.17,NE,50,0.0,0.0,79,0.00,,CLR,0.00,VWS V14.00,2013-02-16 05:58:00,
2013-02-15 22:00:00,48.8,43.9,30.17,NE,50,0.0,0.0,83,0.00,,CLR,0.00,VWS V14.00,2013-02-16 06:00:00,
2013-02-15 22:03:00,51.0,45.1,30.17,NE,50,0.0,0.0,80,0.00,,CLR,0.00,VWS V14.00,2013-02-16 06:03:00,
2013-02-15 22:08:00,50.6,44.7,30.17,NE,50,0.0,0.0,80,0.00,,CLR,0.00,VWS V14.00,2013-02-16 06:08:00,
2013-02-15 22:13:00,50.7,45.1,30.17,NE,50,0.0,0.0,81,0.00,,CLR,0.00,VWS V14.00,2013-02-16 06:13:00,
2013-02-15 22:18:00,50.1,44.5,30.17,NE,50,0.0,0.0,81,0.00,,CLR,0.00,VWS V14.00,2013-02-16 06:18:00,
2013-02-15 22:23:00,50.3,44.7,30.17,NE,50,0.0,0.0,81,0.00,,CLR,0.00,VWS V14.00,2013-02-16 06:23:00,
2013-02-15 22:28:00,49.9,44.6,30.17,NE,50,0.0,0.0,82,0.00,,CLR,0.00,VWS V14.00,2013-02-16 06:28:00,
2013-02-15 22:30:00,47.7,43.1,30.17,NE,50,0.0,0.0,84,0.00,,CLR,0.00,VWS V14.00,2013-02-16 06:30:00,
2013-02-15 22:33:00,49.8,44.5,30.17,NE,50,0.0,0.0,82,0.00,,CLR,0.00,VWS V14.00,2013-02-16 06:33:00,
2013-02-15 22:38:00,49.6,44.7,30.17,NE,50,0.0,0.0,83,0.00,,CLR,0.00,VWS V14.00,2013-02-16 06:38:00,
2013-02-15 22:43:00,49.5,44.6,30.17,NE,50,0.0,0.0,83,0.00,,CLR,0.00,VWS V14.00,2013-02-16 06:43:00,
2013-02-15 22:48:00,49.4,44.5,30.17,NE,50,0.0,0.0,83,0.00,,CLR,0.00,VWS V14.00,2013-02-16 06:48:00,
2013-02-15 22:53:00,49.2,44.3,30.17,NE,50,0.0,0.0,83,0.00,,CLR,0.00,VWS V14.00,2013-02-16 06:53:00,
2013-02-15 22:58:00,48.8,43.9,30.17,NE,50,0.0,0.0,83,0.00,,CLR,0.00,VWS V14.00,2013-02-16 06:58:00,
2013-02-15 23:00:00,46.9,42.6,30.17,NE,50,0.0,0.0,85,0.00,,CLR,0.00,VWS V14.00,2013-02-16 07:00:00,
2013-02-15 23:03:00,48.7,43.8,30.17,NE,50,0.0,0.0,83,0.00,,CLR,0.00,VWS V14.00,2013-02-16 07:03:00,
2013-02-15 23:08:00,48.3,43.7,30.17,NE,50,0.0,0.0,84,0.00,,CLR,0.00,VWS V14.00,2013-02-16 07:08:00,
2013-02-15 23:13:00,48.3,43.4,30.17,NE,50,0.0,0.0,83,0.00,,CLR,0.00,VWS V14.00,2013-02-16 07:13:00,
2013-02-15 23:18:00,48.3,43.7,30.17,NE,50,0.0,0.0,84,0.00,,CLR,0.00,VWS V14.00,2013-02-16 07:18:00,
2013-02-15 23:23:00,48.0,43.4,30.17,NE,50,0.0,0.0,84,0.00,,CLR,0.00,VWS V14.00,2013-02-16 07:23:00,
2013-02-15 23:28:00,47.8,43.2,30.17,NE,50,0.0,0.0,84,0.00,,CLR,0.00,VWS V14.00,2013-02-16 07:28:00,
2013-02-15 23:30:00,46.4,42.5,30.17,NE,50,0.0,0.0,86,0.00,,CLR,0.00,VWS V14.00,2013-02-16 07:30:00,
2013-02-15 23:33:00,47.7,43.1,30.17,NE,50,0.0,0.0,84,0.00,,CLR,0.00,VWS V14.00,2013-02-16 07:33:00,
2013-02-15 23:38:00,47.8,43.2,30.17,NE,50,0.0,0.0,84,0.00,,CLR,0.00,VWS V14.00,2013-02-16 07:38:00,
2013-02-15 23:43:00,47.3,42.7,30.17,NE,50,0.0,0.0,84,0.00,,CLR,0.00,VWS V14.00,2013-02-16 07:43:00,
2013-02-15 23:48:00,47.2,42.9,30.17,NE,50,0.0,0.0,85,0.00,,CLR,0.00,VWS V14.00,2013-02-16 07:48:00,
2013-02-15 23:53:00,47.1,42.8,30.17,NE,50,0.0,0.0,85,0.00,,CLR,0.00,VWS V14.00,2013-02-16 07:53:00,
2013-02-15 23:58:00,47.2,42.9,30.17,NE,50,0.0,0.0,85,0.00,,CLR,0.00,VWS V14.00,2013-02-16 07:58:00,